N4QB-13 Weather Reports


time (UTC)temp
F
wind
direction
speed
knots
gust
knots
rain 1hr
in
rain 24hr
in
rain mn
in
humidity
%
barometer
mb
20260906131700 81 311 0.0 1.7 0.00 0.00 0.00 97 1011.5
20260906131155 80 259 0.9 1.7 0.00 0.00 0.00 97 1011.5
20260906130650 80 317 1.7 1.7 0.00 0.00 0.00 98 1011.4
20260906130145 80 277 0.0 0.9 0.00 0.00 0.00 99 1011.5
20260906125643 80 273 0.9 0.9 0.00 0.00 0.00 99 1011.4
20260906125142 79 250 0.0 0.0 0.00 0.00 0.00 99 1011.5
20260906124637 78 250 0.0 0.0 0.00 0.00 0.00 99 1011.5
20260906124132 78 249 0.0 0.0 0.00 0.00 0.00 99 1011.3
20260906123631 77 249 0.0 0.0 0.00 0.00 0.00 99 1011.3
20260906123127 77 249 0.0 0.0 0.00 0.00 0.00 99 1011.4
20260906122626 77 249 0.0 0.0 0.00 0.00 0.00 99 1011.1
20260906122122 77 249 0.0 0.0 0.00 0.00 0.00 99 1011.2
20260906121618 76 249 0.0 0.0 0.00 0.00 0.00 99 1011.2
20260906121114 76 249 0.0 0.0 0.00 0.00 0.00 99 1011.3
20260906120610 76 249 0.0 0.0 0.00 0.00 0.00 99 1011.2
20260906120107 75 249 0.0 0.0 0.00 0.00 0.00 99 1011.1
20260906115607 74 249 0.0 0.0 0.00 0.00 0.00 99 1011.1
20260906115102 74 250 0.0 0.0 0.00 0.00 0.00 99 1011.0
20260906114601 74 250 0.0 0.0 0.00 0.00 0.00 99 1010.8
20260906114057 74 250 0.0 0.0 0.00 0.00 0.00 99 1010.9
20260906113556 74 250 0.0 0.0 0.00 0.00 0.00 99 1010.7
20260906113052 74 250 0.0 0.0 0.00 0.00 0.00 99 1010.7
20260906112552 74 250 0.0 0.0 0.00 0.00 0.00 99 1010.6
20260906112048 74 250 0.0 0.0 0.00 0.00 0.00 99 1010.8
20260906111548 74 250 0.0 0.0 0.00 0.00 0.00 99 1010.8
20260906110334 75 250 0.0 0.0 0.00 0.00 0.00 99 1010.7
20260906105833 75 250 0.0 0.0 0.00 0.00 0.00 99 1010.7
20260906105329 75 250 0.0 0.0 0.00 0.00 0.00 99 1010.4
20260906104824 75 250 0.0 0.0 0.00 0.00 0.00 99 1010.4
20260906104323 75 250 0.0 0.0 0.00 0.00 0.00 99 1010.5
20260906103822 75 250 0.0 0.0 0.00 0.00 0.00 99 1010.3
20260906103320 75 250 0.0 0.0 0.00 0.00 0.00 99 1010.5
20260906102817 75 250 0.0 0.0 0.00 0.00 0.00 99 1010.1
20260906102315 75 250 0.0 0.0 0.00 0.00 0.00 99 1010.4
20260906101811 75 250 0.0 0.0 0.00 0.00 0.00 99 1010.2
20260906101306 75 250 0.0 0.0 0.00 0.00 0.00 99 1010.3
20260906100801 75 250 0.0 0.0 0.00 0.00 0.00 99 1010.2
20260906100301 75 250 0.0 0.0 0.00 0.00 0.00 99 1010.3
20260906095756 75 250 0.0 0.0 0.00 0.00 0.00 99 1010.5
20260906095251 75 250 0.0 0.0 0.00 0.00 0.00 99 1010.2
20260906094750 75 250 0.0 0.0 0.00 0.00 0.00 99 1010.3
20260906094245 75 250 0.0 0.0 0.00 0.00 0.00 99 1010.3
20260906093742 75 250 0.0 0.0 0.00 0.00 0.00 99 1010.3
20260906093237 75 250 0.0 0.0 0.00 0.00 0.00 99 1010.0
20260906092732 75 250 0.0 0.0 0.00 0.00 0.00 99 1010.1
20260906092232 75 250 0.0 0.0 0.00 0.00 0.00 99 1010.2
20260906091728 75 250 0.0 0.0 0.00 0.00 0.00 99 1010.0
20260906091224 75 249 0.0 0.0 0.00 0.00 0.00 99 1009.9
20260906090720 75 249 0.0 0.0 0.00 0.00 0.00 99 1009.9
20260906090219 75 250 0.0 0.0 0.00 0.00 0.00 99 1009.8
20260906085719 75 250 0.0 0.0 0.00 0.00 0.00 99 1010.0
20260906085218 75 250 0.0 0.0 0.00 0.00 0.00 99 1009.9
20260906084713 75 250 0.0 0.0 0.00 0.00 0.00 99 1009.8
20260906084212 75 249 0.0 0.0 0.00 0.00 0.00 99 1009.7
20260906083708 75 250 0.0 0.0 0.00 0.00 0.00 99 1009.7
20260906083203 75 250 0.0 0.0 0.00 0.00 0.00 99 1009.8
20260906082658 75 249 0.0 0.0 0.00 0.00 0.00 99 1009.5
20260906082153 75 249 0.0 0.0 0.00 0.00 0.00 99 1009.7
20260906081649 75 249 0.0 0.0 0.00 0.00 0.00 99 1009.9
20260906081144 75 249 0.0 0.0 0.00 0.00 0.00 99 1009.7
20260906080640 75 249 0.0 0.0 0.00 0.00 0.00 99 1009.8
20260906080136 75 249 0.0 0.0 0.00 0.00 0.00 99 1009.9
20260906075630 75 249 0.0 0.0 0.00 0.00 0.00 99 1009.9
20260906075125 75 249 0.0 0.0 0.00 0.00 0.00 99 1010.1
20260906074620 75 249 0.0 0.0 0.00 0.00 0.00 99 1009.9
20260906074118 75 249 0.0 0.0 0.00 0.00 0.00 99 1010.0
20260906073614 75 249 0.0 0.0 0.00 0.00 0.00 99 1009.8
20260906073110 75 249 0.0 0.0 0.00 0.00 0.00 99 1009.7
20260906072605 75 249 0.0 0.0 0.00 0.00 0.00 99 1009.7
20260906072101 76 249 0.0 0.0 0.00 0.00 0.00 99 1009.7
20260906071557 76 249 0.0 0.0 0.00 0.00 0.00 99 1009.5
20260906071057 76 249 0.0 0.0 0.00 0.00 0.00 99 1009.9
20260906070554 76 249 0.0 0.0 0.00 0.00 0.00 99 1009.7
20260906070049 77 249 0.0 0.0 0.00 0.00 0.00 99 1009.7
20260906065548 77 249 0.0 0.0 0.00 0.00 0.00 99 1009.8
20260906065044 77 249 0.0 0.0 0.00 0.00 0.00 99 1009.9
20260906064540 77 247 0.0 0.0 0.00 0.00 0.00 99 1009.7
20260906064034 77 248 0.0 0.0 0.00 0.00 0.00 99 1009.5
20260906063530 76 245 0.0 0.0 0.00 0.00 0.00 99 1009.8
20260906063026 76 244 0.0 0.0 0.00 0.00 0.00 99 1009.9
20260906062521 76 244 0.0 0.0 0.00 0.00 0.00 99 1009.9
20260906062015 76 244 0.0 0.0 0.00 0.00 0.00 99 1010.0
20260906061511 75 244 0.0 0.0 0.00 0.00 0.00 99 1010.0
20260906061011 76 245 0.0 0.0 0.00 0.00 0.00 99 1009.9
20260906060508 76 245 0.0 0.0 0.00 0.00 0.00 99 1010.5
20260906060004 76 245 0.0 0.0 0.00 0.00 0.00 99 1010.0
20260906055500 76 245 0.0 0.0 0.00 0.00 0.00 99 1010.1
20260906054955 76 245 0.0 0.0 0.00 0.00 0.00 99 1010.2
20260906054454 76 245 0.0 0.0 0.00 0.00 0.00 99 1010.3
20260906053950 76 245 0.0 0.0 0.00 0.00 0.00 99 1010.5
20260906053446 76 245 0.0 0.0 0.00 0.00 0.00 99 1010.5
20260906052942 76 245 0.0 0.0 0.00 0.00 0.00 99 1010.3
20260906052438 76 245 0.0 0.0 0.00 0.00 0.00 99 1010.2
20260906051934 76 245 0.0 0.0 0.00 0.00 0.00 98 1010.2
20260906051430 76 245 0.0 0.0 0.00 0.00 0.00 98 1010.5
20260906050925 76 245 0.0 0.0 0.00 0.00 0.00 98 1010.4
20260906050425 76 245 0.0 0.0 0.00 0.00 0.00 98 1010.5
20260906045924 76 245 0.0 0.0 0.00 0.00 0.00 98 1010.5
20260906045423 77 245 0.0 0.0 0.00 0.00 0.00 98 1010.6
20260906044920 76 245 0.0 0.0 0.00 0.00 0.00 98 1010.4
20260906044420 76 245 0.0 0.0 0.00 0.00 0.00 98 1010.3
20260906043915 77 245 0.0 0.0 0.00 0.00 0.00 98 1010.8
20260906043411 77 245 0.0 0.0 0.00 0.00 0.00 98 1010.8
20260906042906 77 245 0.0 0.0 0.00 0.00 0.00 98 1010.6
20260906042406 77 246 0.0 0.0 0.00 0.00 0.00 97 1011.0
20260906041901 77 246 0.0 0.0 0.00 0.00 0.00 97 1010.8
20260906041357 77 246 0.0 0.0 0.00 0.00 0.00 97 1010.8
20260906040856 77 223 0.0 0.0 0.00 0.00 0.00 97 1010.8
20260906040352 77 223 0.0 0.0 0.00 0.00 0.00 97 1010.8
20260906035847 77 223 0.0 0.0 0.00 0.02 0.02 97 1010.8
20260906035342 77 223 0.0 0.0 0.00 0.02 0.02 97 1011.0
20260906034838 77 223 0.0 0.0 0.00 0.02 0.02 97 1011.0
20260906034332 77 223 0.0 0.0 0.00 0.02 0.02 97 1011.2
20260906033829 77 223 0.0 0.0 0.00 0.02 0.02 97 1011.2
20260906033327 77 223 0.0 0.0 0.00 0.02 0.02 96 1011.4
20260906032824 77 223 0.0 0.0 0.00 0.02 0.02 96 1011.5
20260906032320 77 223 0.0 0.0 0.00 0.02 0.02 96 1011.6
20260906031815 77 223 0.0 0.0 0.00 0.02 0.02 96 1011.5
20260906031310 77 223 0.0 0.0 0.00 0.02 0.02 96 1011.7
20260906030810 78 223 0.0 0.0 0.00 0.02 0.02 96 1011.5
20260906030305 78 223 0.0 0.0 0.00 0.02 0.02 96 1011.3
20260906025805 78 223 0.0 0.0 0.00 0.02 0.02 96 1011.6
20260906025259 78 223 0.0 0.0 0.00 0.02 0.02 95 1011.5
20260906024758 78 223 0.0 0.0 0.00 0.02 0.02 95 1011.3
20260906024257 78 223 0.0 0.0 0.00 0.02 0.02 95 1011.2
20260906023753 78 223 0.0 0.0 0.00 0.02 0.02 95 1011.0
20260906023248 78 223 0.0 0.0 0.00 0.02 0.02 95 1010.9
20260906022744 78 223 0.0 0.0 0.00 0.02 0.02 95 1010.8
20260906022238 78 223 0.0 0.0 0.00 0.02 0.02 95 1010.6
20260906021735 78 223 0.0 0.0 0.00 0.02 0.02 94 1010.6
20260906020502 79 223 0.0 0.0 0.00 0.02 0.02 94 1010.6
20260906020001 79 223 0.0 0.0 0.00 0.02 0.02 94 1010.6
20260906015500 79 223 0.0 0.0 0.00 0.02 0.02 94 1010.4
20260906015000 79 223 0.0 0.0 0.00 0.02 0.02 94 1010.5
20260906014455 79 223 0.0 0.0 0.00 0.02 0.02 93 1010.5
20260906013951 79 223 0.0 0.0 0.00 0.02 0.02 93 1010.3
20260906013447 79 223 0.0 0.0 0.00 0.02 0.02 93 1010.3
20260906012942 79 223 0.0 0.0 0.00 0.02 0.02 93 1010.0
20260906012437 79 223 0.0 0.0 0.00 0.02 0.02 93 1010.0
20260906011936 80 223 0.0 0.0 0.00 0.02 0.02 93 1009.9
20260906011432 80 223 0.0 0.0 0.00 0.02 0.02 92 1009.9
20260906010927 80 223 0.0 0.0 0.00 0.02 0.02 92 1009.6
20260906010422 80 223 0.0 0.0 0.00 0.02 0.02 92 1009.9
20260906005918 80 223 0.0 0.0 0.00 0.02 0.02 92 1009.9
20260906005417 80 223 0.9 0.9 0.00 0.02 0.02 92 1009.7
20260906004916 80 223 0.0 0.0 0.00 0.02 0.02 91 1009.7
20260906004411 80 223 0.0 0.0 0.00 0.02 0.02 91 1009.7
20260906003906 80 223 0.0 0.0 0.00 0.02 0.02 91 1009.6
20260906003401 80 223 0.0 0.0 0.00 0.02 0.02 90 1009.6
20260906002857 81 223 0.0 0.0 0.00 0.02 0.02 90 1009.6
20260906002356 81 223 0.0 0.0 0.00 0.02 0.02 89 1009.5
20260906001852 81 224 0.0 0.0 0.00 0.02 0.02 89 1009.4
20260906001347 82 224 0.0 0.0 0.00 0.02 0.02 89 1009.5
20260906000842 82 224 0.0 0.0 0.00 0.02 0.02 88 1009.5
20260906000342 82 198 0.0 0.0 0.00 0.02 0.02 87 1009.5
20260905235842 82 182 0.0 0.0 0.00 0.02 0.02 87 1009.4
20260905235337 83 182 0.0 0.0 0.00 0.02 0.02 86 1009.5
20260905234832 83 182 0.0 0.9 0.00 0.02 0.02 85 1009.5
20260905234328 83 172 0.0 0.0 0.00 0.02 0.02 85 1009.6
20260905233823 83 172 0.0 0.0 0.00 0.02 0.02 84 1009.7
20260905233318 84 182 0.0 0.9 0.00 0.02 0.02 84 1009.4
20260905232817 84 181 0.0 1.7 0.00 0.02 0.02 83 1009.6
20260905232313 84 213 0.0 0.0 0.00 0.02 0.02 83 1009.4
20260905231808 85 200 0.0 0.0 0.00 0.02 0.02 82 1009.5
20260905231303 85 199 0.0 0.0 0.00 0.02 0.02 82 1009.5
20260905230800 86 189 0.0 0.9 0.00 0.02 0.02 81 1009.7
20260905230257 86 183 0.0 0.9 0.00 0.02 0.02 81 1009.8
20260905225757 86 228 0.0 1.7 0.00 0.02 0.02 81 1009.9
20260905225252 86 212 0.0 0.9 0.00 0.02 0.02 81 1009.9
20260905224751 86 205 0.0 2.6 0.00 0.02 0.02 81 1009.9
20260905224247 86 230 0.0 3.5 0.00 0.02 0.02 82 1009.9
20260905223743 87 189 0.9 2.6 0.00 0.02 0.02 83 1009.9
20260905223240 87 189 0.0 0.0 0.00 0.02 0.02 84 1010.1
20260905222735 87 191 0.0 1.7 0.00 0.02 0.02 84 1010.1
20260905222234 87 175 1.7 2.6 0.00 0.02 0.02 83 1010.3
20260905221730 88 194 0.0 0.0 0.00 0.02 0.02 84 1010.1
20260905221227 88 194 0.9 1.7 0.00 0.02 0.02 85 1010.3
20260905220723 87 188 1.7 3.5 0.00 0.02 0.02 87 1010.2
20260905220218 86 192 0.9 3.5 0.00 0.02 0.02 87 1010.2
20260905215718 86 181 0.9 0.9 0.00 0.02 0.02 87 1010.2
20260905215214 87 194 0.0 1.7 0.00 0.02 0.02 89 1010.1
20260905214709 86 223 0.0 1.7 0.00 0.02 0.02 90 1010.1
20260905214204 85 200 0.9 2.6 0.00 0.02 0.02 92 1010.0
20260905213700 84 194 0.0 0.0 0.00 0.02 0.02 93 1010.1
20260905213155 83 186 0.0 0.0 0.00 0.02 0.02 93 1009.9
20260905212650 83 174 1.7 2.6 0.00 0.02 0.02 94 1010.1
20260905212150 82 232 0.0 0.9 0.00 0.02 0.02 93 1010.0
20260905211644 82 184 0.0 0.0 0.00 0.02 0.02 94 1010.1
20260905211140 82 193 0.0 0.9 0.00 0.02 0.02 93 1010.0
20260905210637 82 193 0.0 0.0 0.00 0.02 0.02 93 1010.2
20260905210136 82 193 0.0 0.0 0.00 0.02 0.02 93 1010.4
20260905205635 82 192 0.0 0.0 0.00 0.02 0.02 93 1010.3
20260905205130 82 192 0.0 0.0 0.00 0.02 0.02 93 1010.3
20260905204629 82 192 0.0 0.0 0.00 0.02 0.02 93 1010.2
20260905204125 82 192 0.0 0.0 0.00 0.02 0.02 93 1010.2
20260905203625 82 192 0.0 0.0 0.00 0.02 0.02 93 1010.3
20260905203120 82 192 0.0 0.0 0.07 0.02 0.02 92 1010.2
20260905202616 82 192 0.0 0.9 0.07 0.02 0.02 92 1010.4
20260905202111 82 182 0.0 0.9 0.00 0.01 0.01 91 1010.5
20260905201607 82 173 0.0 0.9 0.00 0.01 0.01 91 1010.6
20260905201106 83 176 0.9 2.6 0.00 0.01 0.01 91 1010.5
20260905200602 83 192 0.0 0.0 0.00 0.01 0.01 90 1010.6
20260905200056 83 175 0.0 0.9 0.00 0.01 0.01 89 1010.6
20260905195555 83 186 1.7 2.6 0.00 0.01 0.01 89 1010.8
20260905195051 84 191 0.9 3.5 0.00 0.01 0.01 87 1010.6
20260905194551 85 176 0.0 0.9 0.00 0.01 0.01 85 1010.7
20260905194050 86 190 0.0 0.0 0.00 0.01 0.01 83 1011.0
20260905193545 87 179 0.0 0.9 0.05 0.01 0.01 80 1011.3
20260905193040 88 168 0.9 3.5 0.00 0.00 0.00 78 1011.2
20260905192535 89 185 0.0 1.7 0.00 0.00 0.00 74 1011.2
20260905192032 91 174 0.0 1.7 0.00 0.00 0.00 70 1011.0
20260905191531 91 214 0.0 0.9 0.00 0.00 0.00 67 1011.0
20260905191030 92 191 0.0 0.9 0.00 0.00 0.00 66 1011.1
20260905190528 92 164 0.0 2.6 0.00 0.00 0.00 67 1011.1
20260905190027 92 202 0.0 1.7 0.00 0.00 0.00 68 1010.9
20260905185307 93 321 1.7 2.6 0.00 0.00 0.00 70 1010.7
20260905184806 93 321 1.7 2.6 0.00 0.00 0.00 70 1010.7
20260905184306 92 213 0.0 0.0 0.00 0.00 0.00 71 1010.8
20260905183804 91 262 0.9 3.5 0.00 0.00 0.00 72 1011.0
20260905183300 90 6 1.7 5.2 0.00 0.00 0.00 73 1011.1
20260905182759 91 68 0.9 5.2 0.00 0.00 0.00 72 1011.2
20260905182253 91 216 0.9 1.7 0.00 0.00 0.00 73 1011.2
20260905181749 91 29 0.9 1.7 0.00 0.00 0.00 73 1011.4
20260905181248 90 254 1.7 1.7 0.00 0.00 0.00 75 1011.2
20260905180743 89 198 0.0 1.7 0.00 0.00 0.00 77 1011.4
20260905180238 88 289 0.0 2.6 0.00 0.00 0.00 77 1011.7
20260905175732 89 2 0.0 0.9 0.00 0.00 0.00 78 1011.7
20260905175227 87 11 4.3 5.2 0.00 0.00 0.00 78 1011.8
20260905174723 88 343 0.0 0.9 0.00 0.00 0.00 80 1011.9
20260905174218 88 29 0.9 0.9 0.00 0.00 0.00 82 1011.8
20260905173714 87 216 1.7 1.7 0.00 0.00 0.00 83 1011.9
20260905173210 87 293 1.7 2.6 0.00 0.00 0.00 85 1012.1
20260905172709 87 1 0.0 1.7 0.00 0.00 0.00 87 1012.2
20260905172203 86 153 0.0 1.7 0.00 0.00 0.00 88 1012.1
20260905171659 84 351 0.0 0.9 0.00 0.00 0.00 89 1012.3
20260905171155 84 351 0.0 0.9 0.00 0.00 0.00 89 1012.3
20260905170652 84 308 0.9 1.7 0.00 0.00 0.00 89 1012.5
20260905170146 84 1 0.0 0.9 0.00 0.00 0.00 89 1012.6
20260905165646 84 340 0.9 1.7 0.00 0.00 0.00 89 1012.6
20260905165142 85 155 0.0 1.7 0.00 0.00 0.00 89 1012.6
20260905164642 84 33 1.7 2.6 0.00 0.00 0.00 90 1012.7
20260905164141 84 129 0.0 0.9 0.00 0.00 0.00 91 1012.6
20260905163637 84 16 0.0 0.9 0.00 0.00 0.00 91 1013.0
20260905163134 84 122 0.9 1.7 0.00 0.00 0.00 91 1012.6
20260905162630 84 37 1.7 3.5 0.00 0.00 0.00 92 1012.9
20260905162129 84 130 0.9 1.7 0.00 0.00 0.00 92 1012.8
20260905161628 84 26 0.9 1.7 0.00 0.00 0.00 93 1013.0
20260905161127 84 19 0.9 1.7 0.00 0.00 0.00 93 1013.0
20260905160627 84 232 2.6 5.2 0.00 0.00 0.00 93 1013.0
20260905160126 84 236 0.0 0.0 0.00 0.00 0.00 94 1013.0
20260905155621 84 279 0.9 1.7 0.00 0.00 0.00 94 1013.0
20260905155120 84 255 0.0 0.0 0.00 0.00 0.00 95 1012.9
20260905154620 83 224 0.0 0.0 0.00 0.00 0.00 95 1013.0
20260905154115 83 212 0.0 1.7 0.00 0.00 0.00 95 1013.0
20260905153611 82 240 0.0 0.0 0.00 0.00 0.00 95 1013.1
20260905153106 82 189 0.0 2.6 0.00 0.00 0.00 95 1012.9
20260905152601 82 122 0.0 0.9 0.00 0.00 0.00 96 1013.3
20260905152055 82 238 0.9 2.6 0.00 0.00 0.00 96 1013.4
20260905151551 82 185 0.0 0.9 0.00 0.00 0.00 97 1013.2
20260905151046 82 190 0.0 0.9 0.00 0.00 0.00 97 1013.0
20260905150541 82 53 0.0 0.9 0.00 0.00 0.00 98 1013.1
20260905150039 81 63 0.9 2.6 0.00 0.00 0.00 99 1013.1
20260905145533 80 63 0.0 0.9 0.00 0.00 0.00 99 1013.0
20260905145032 80 313 0.0 0.9 0.00 0.00 0.00 99 1013.1
20260905144527 80 176 0.0 0.9 0.00 0.00 0.00 99 1013.1
20260905144026 80 114 0.9 1.7 0.00 0.00 0.00 99 1012.8
20260905143526 80 169 0.0 0.0 0.00 0.00 0.00 99 1012.9
20260905143021 79 176 0.0 0.0 0.00 0.00 0.00 99 1013.0
20260905142519 79 243 0.0 0.9 0.00 0.00 0.00 99 1013.0
20260905142015 79 243 0.0 0.9 0.00 0.00 0.00 99 1013.1
20260905141509 78 242 0.0 0.0 0.00 0.00 0.00 99 1013.2
20260905141006 78 47 0.0 0.9 0.00 0.00 0.00 99 1013.1
20260905140500 78 47 0.0 0.0 0.00 0.00 0.00 99 1013.1
20260905135959 78 47 0.0 0.0 0.00 0.00 0.00 99 1013.1
20260905135455 78 47 0.0 0.9 0.00 0.00 0.00 99 1013.5
20260905134950 78 64 0.9 1.7 0.00 0.00 0.00 99 1013.6
20260905134449 77 86 0.0 0.0 0.00 0.00 0.00 99 1013.5
20260905133949 77 121 0.0 0.9 0.00 0.00 0.00 99 1013.5
20260905133444 78 12 1.7 1.7 0.00 0.00 0.00 99 1013.5
20260905132943 77 25 0.0 0.9 0.00 0.00 0.00 99 1013.2
20260905132438 77 25 0.0 1.7 0.00 0.00 0.00 99 1013.3
20260905131933 77 26 0.0 0.9 0.00 0.00 0.00 99 1013.6